This is the latest recevied weather packets stored in our database for station/object DK4MDA-13. If no packets are shown the sender has not sent any weather packets the latest 10 day(s).
| Time | Temp. | Humidity | Pressure | Rain* | Wind** | Luminosity | Snow |
|---|---|---|---|---|---|---|---|
| 1777988230 | 17.22° C | 82% | 1008.7 hPa | 0 mm | - | - | - |
| 1777987930 | 17.22° C | 81% | 1008.5 hPa | 0 mm | - | - | - |
| 1777987630 | 16.67° C | 81% | 1008.5 hPa | 0 mm | - | - | - |
| 1777987330 | 17.22° C | 81% | 1008.6 hPa | 0 mm | - | - | - |
| 1777987030 | 17.22° C | 82% | 1008.6 hPa | 0 mm | - | - | - |
| 1777986730 | 17.22° C | 80% | 1008.7 hPa | 0 mm | - | - | - |
| 1777986430 | 17.22° C | 81% | 1008.7 hPa | 0 mm | - | - | - |
| 1777986130 | 17.78° C | 80% | 1008.7 hPa | 0 mm | - | - | - |
| 1777985830 | 17.78° C | 78% | 1008.7 hPa | 0 mm | - | - | - |
| 1777985530 | 18.33° C | 75% | 1008.7 hPa | 0 mm | - | - | - |
| 1777985230 | 18.33° C | 73% | 1008.7 hPa | 0 mm | - | - | - |
| 1777984930 | 18.33° C | 74% | 1008.8 hPa | 0 mm | - | - | - |
| 1777984630 | 18.89° C | 76% | 1008.8 hPa | 0 mm | - | - | - |
| 1777984330 | 18.89° C | 76% | 1008.6 hPa | 0 mm | - | - | - |
| 1777984030 | 18.89° C | 74% | 1008.7 hPa | 0 mm | - | - | - |
| 1777983730 | 18.89° C | 75% | 1008.8 hPa | 0 mm | - | - | - |
| 1777983430 | 18.89° C | 75% | 1008.9 hPa | 0 mm | - | - | - |
| 1777983130 | 18.89° C | 74% | 1008.9 hPa | 0 mm | - | - | - |
| 1777982830 | 18.89° C | 72% | 1008.9 hPa | 0 mm | - | - | - |
| 1777982530 | 19.44° C | 72% | 1009 hPa | 0 mm | - | - | - |
| 1777982230 | 19.44° C | 76% | 1009.1 hPa | 0 mm | - | - | - |
| 1777981930 | 18.89° C | 76% | 1009 hPa | 0 mm | - | - | - |
| 1777981630 | 18.89° C | 74% | 1009.1 hPa | 0 mm | - | - | - |
| 1777981330 | 18.89° C | 76% | 1009.1 hPa | 0 mm | - | - | - |
| 1777981029 | 18.33° C | 74% | 1009.2 hPa | 0 mm | - | - | - |
* Rain latest hour (hover to see other rain measurements)
** Current wind speed in m/s (hover to see current wind gust speed)